QPF
0.05 0.02 0.01 0.01 0.00 0.00 0.02 0.03 0.01 0.00 0.00 0.00 0.00 0.00 0.00 0.00 0.00 0.00 0.00 0.00 0.00 0.00 0.00 0.00 0.00 0.00 0.00 0.00 0.00 0.00 0.00 0.00 0.00 0.00 0.00 0.00 0.00 0.00 0.00 0.00 0.00 0.00 0.00
0.04 0.02 0.01 0.01 0.01 0.00 0.00 0.00 0.00 0.00 0.00 0.00 0.00 0.00 0.00 0.00 0.00 0.00 0.00 0.00 0.00 0.00 0.00 0.00 0.00 0.00 0.00 0.00 0.00 0.00 0.00 0.00 0.00 0.00 0.00 0.00 0.00 0.00 0.00 0.00 0.00 0.00 0.00
0.04 0.01 0.00 0.00 0.00 0.00 0.00 0.00 0.00 0.00 0.00 0.00 0.00 0.00 0.00 0.00 0.00 0.00 0.00 0.00 0.00 0.00 0.00 0.00 0.00 0.00 0.00 0.00 0.00 0.00 0.00 0.00 0.00 0.00 0.00 0.00 0.00 0.00 0.00 0.00 0.00 0.00 0.00
0.02 0.00 0.00 0.00 0.00 0.00 0.00 0.00 0.00 0.00 0.00 0.00 0.00 0.00 0.00 0.00 0.00 0.00 0.00 0.00 0.00 0.00 0.00 0.00 0.00 0.00 0.00 0.00 0.00 0.00 0.00 0.00 0.00 0.00 0.00 0.00 0.00 0.00 0.00 0.00 0.00 0.00 0.00
0.03 0.01 0.00 0.00 0.00 0.00 0.00 0.00 0.00 0.00 0.00 0.00 0.00 0.00 0.00 0.00 0.00 0.00 0.00 0.00 0.00 0.00 0.00 0.00 0.00 0.00 0.00 0.00 0.00 0.00 0.00 0.00 0.00 0.00 0.00 0.00 0.00 0.00 0.00 0.00 0.00 0.00 0.00
0.01 0.02 0.01 0.01 0.01 0.00 0.00 0.00 0.00 0.00 0.00 0.00 0.00 0.00 0.00 0.00 0.00 0.00 0.00 0.00 0.00 0.00 0.00 0.00 0.00 0.00 0.00 0.00 0.00 0.00 0.00 0.00 0.00 0.00 0.00 0.00 0.00 0.00 0.00 0.00 0.00 0.00 0.00
0.00 0.00 0.01 0.01 0.03 0.03 0.02 0.01 0.00 0.00 0.00 0.00 0.00 0.00 0.00 0.00 0.00 0.00 0.00 0.00 0.00 0.00 0.00 0.00 0.00 0.00 0.00 0.00 0.00 0.00 0.00 0.00 0.00 0.00 0.00 0.00 0.00 0.00 0.00 0.00 0.00 0.00 0.00
0.00 0.00 0.00 0.00 0.00 0.01 0.03 0.01 0.01 0.01 0.00 0.00 0.00 0.00 0.00 0.00 0.00 0.00 0.00 0.00 0.00 0.00 0.00 0.00 0.00 0.00 0.00 0.00 0.00 0.00 0.00 0.00 0.00 0.00 0.00 0.00 0.00 0.00 0.00 0.00 0.00 0.00 0.00
0.00 0.00 0.00 0.00 0.00 0.00 0.00 0.00 0.00 0.01 0.01 0.00 0.00 0.00 0.00 0.00 0.00 0.00 0.00 0.00 0.00 0.00 0.00 0.00 0.00 0.00 0.00 0.00 0.00 0.00 0.00 0.00 0.00 0.00 0.00 0.00 0.00 0.00 0.00 0.00 0.00 0.00 0.00
0.00 0.00 0.00 0.00 0.00 0.00 0.00 0.00 0.00 0.00 0.00 0.00 0.00 0.00 0.00 0.00 0.01 0.00 0.00 0.00 0.01 0.00 0.00 0.00 0.00 0.00 0.00 0.00 0.00 0.00 0.00 0.00 0.00 0.00 0.00 0.00 0.00 0.00 0.00 0.00 0.00 0.00 0.00
0.00 0.00 0.00 0.00 0.00 0.00 0.00 0.00 0.00 0.00 0.00 0.00 0.00 0.00 0.00 0.00 0.00 0.00 0.00 0.00 0.00 0.00 0.01 0.00 0.00 0.00 0.00 0.00 0.00 0.00 0.00 0.00 0.00 0.00 0.00 0.00 0.00 0.00 0.00 0.00 0.00 0.00 0.00
0.00 0.00 0.00 0.00 0.00 0.00 0.00 0.00 0.00 0.00 0.00 0.00 0.00 0.00 0.00 0.00 0.00 0.00 0.00 0.00 0.00 0.00 0.00 0.00 0.00 0.00 0.00 0.00 0.00 0.00 0.00 0.00 0.00 0.00 0.00 0.00 0.00 0.00 0.00 0.00 0.00 0.00 0.00
0.00 0.00 0.00 0.00 0.00 0.00 0.00 0.00 0.00 0.00 0.00 0.00 0.00 0.00 0.00 0.00 0.00 0.00 0.00 0.00 0.00 0.00 0.00 0.00 0.00 0.00 0.00 0.00 0.00 0.00 0.00 0.00 0.00 0.00 0.00 0.00 0.00 0.00 0.00 0.00 0.00 0.00 0.00
0.00 0.00 0.00 0.00 0.00 0.00 0.00 0.00 0.00 0.00 0.00 0.00 0.00 0.00 0.00 0.00 0.00 0.00 0.00 0.00 0.00 0.00 0.00 0.00 0.00 0.00 0.00 0.00 0.00 0.00 0.00 0.00 0.00 0.00 0.00 0.00 0.00 0.00 0.00 0.00 0.00 0.00 0.00
0.00 0.00 0.00 0.00 0.00 0.00 0.00 0.00 0.00 0.00 0.00 0.00 0.00 0.00 0.00 0.00 0.00 0.00 0.00 0.00 0.00 0.00 0.00 0.00 0.00 0.00 0.00 0.00 0.00 0.00 0.00 0.00 0.00 0.00 0.00 0.00 0.00 0.00 0.00 0.00 0.00 0.00 0.00
0.00 0.00 0.00 0.00 0.00 0.00 0.00 0.00 0.00 0.00 0.00 0.00 0.00 0.00 0.00 0.00 0.00 0.00 0.00 0.00 0.00 0.00 0.00 0.00 0.00 0.00 0.00 0.00 0.00 0.00 0.00 0.00 0.00 0.00 0.00 0.00 0.00 0.00 0.00 0.00 0.00 0.00 0.00
0.00 0.00 0.00 0.00 0.00 0.00 0.00 0.00 0.00 0.00 0.00 0.00 0.00 0.00 0.00 0.00 0.00 0.00 0.00 0.00 0.00 0.00 0.00 0.00 0.00 0.00 0.00 0.00 0.00 0.00 0.00 0.00 0.00 0.00 0.00 0.00 0.00 0.00 0.00 0.00 0.00 0.00 0.00
0.00 0.00 0.00 0.00 0.00 0.00 0.00 0.00 0.00 0.00 0.00 0.00 0.00 0.00 0.00 0.00 0.00 0.00 0.00 0.00 0.00 0.00 0.00 0.00 0.00 0.00 0.00 0.00 0.00 0.00 0.00 0.00 0.00 0.00 0.00 0.00 0.00 0.00 0.00 0.00 0.00 0.00 0.00
0.00 0.00 0.00 0.00 0.00 0.00 0.00 0.00 0.00 0.00 0.00 0.00 0.00 0.00 0.00 0.00 0.00 0.00 0.00 0.00 0.00 0.00 0.00 0.00 0.00 0.00 0.00 0.00 0.00 0.00 0.00 0.00 0.00 0.00 0.00 0.00 0.00 0.00 0.00 0.00 0.00 0.00 0.00
0.00 0.00 0.00 0.00 0.00 0.00 0.00 0.00 0.00 0.00 0.00 0.00 0.00 0.00 0.00 0.00 0.00 0.00 0.00 0.00 0.00 0.00 0.00 0.00 0.00 0.00 0.00 0.00 0.00 0.00 0.00 0.00 0.00 0.00 0.00 0.00 0.00 0.00 0.00 0.00 0.00 0.00 0.00
0.00 0.00 0.00 0.00 0.00 0.00 0.00 0.00 0.00 0.00 0.00 0.00 0.00 0.00 0.00 0.00 0.00 0.00 0.00 0.00 0.00 0.00 0.00 0.00 0.00 0.00 0.00 0.00 0.00 0.00 0.00 0.00 0.00 0.00 0.00 0.00 0.00 0.00 0.00 0.00 0.00 0.00 0.00
0.00 0.00 0.00 0.00 0.00 0.00 0.00 0.00 0.00 0.00 0.00 0.00 0.00 0.00 0.00 0.00 0.00 0.00 0.00 0.00 0.00 0.00 0.00 0.00 0.00 0.00 0.00 0.00 0.00 0.00 0.00 0.00 0.00 0.00 0.00 0.00 0.00 0.00 0.00 0.00 0.00 0.00 0.00
0.00 0.00 0.00 0.00 0.00 0.00 0.00 0.00 0.00 0.00 0.00 0.00 0.00 0.00 0.00 0.00 0.00 0.00 0.00 0.00 0.00 0.00 0.00 0.00 0.00 0.00 0.00 0.00 0.00 0.00 0.00 0.00 0.00 0.00 0.00 0.00 0.00 0.00 0.00 0.00 0.00 0.00 0.00
0.00 0.00 0.00 0.00 0.00 0.00 0.00 0.00 0.00 0.00 0.00 0.00 0.00 0.00 0.00 0.00 0.00 0.00 0.00 0.00 0.00 0.00 0.00 0.00 0.00 0.00 0.00 0.00 0.00 0.00 0.00 0.00 0.00 0.00 0.00 0.00 0.00 0.00 0.00 0.00 0.00 0.00 0.00
0.00 0.00 0.00 0.00 0.00 0.00 0.00 0.00 0.00 0.00 0.00 0.00 0.00 0.00 0.00 0.00 0.00 0.00 0.00 0.00 0.00 0.00 0.00 0.00 0.00 0.00 0.00 0.00 0.00 0.00 0.00 0.00 0.00 0.00 0.00 0.00 0.00 0.00 0.00 0.00 0.00 0.00 0.00
0.00 0.00 0.00 0.00 0.00 0.00 0.00 0.00 0.00 0.00 0.00 0.00 0.00 0.00 0.00 0.00 0.00 0.00 0.00 0.00 0.01 0.01 0.01 0.01 0.01 0.00 0.00 0.00 0.00 0.00 0.00 0.00 0.00 0.00 0.00 0.00 0.00 0.00 0.00 0.00 0.00 0.00 0.00
MSLP
1013.35 1013.24 1013.86 1013.82 1014.34 1014.05 1014.68 1015.10 1015.49 1016.25 1016.78 1017.38 1018.04 1018.37 1018.60 1019.11 1019.49 1019.61 1019.85 1020.09 1020.34 1020.73 1021.08 1021.32 1021.71 1022.04 1022.04 1022.17 1022.45 1022.80 1023.23 1023.55 1023.92 1024.48 1024.93 1025.28 1025.28 1025.27 1025.28 1025.48 1025.61 1025.95 1026.18
1013.55 1013.55 1013.40 1012.89 1014.12 1015.68 1014.34 1015.19 1015.72 1016.46 1016.90 1017.43 1017.88 1018.25 1018.57 1018.92 1018.93 1019.20 1019.49 1019.86 1020.20 1020.62 1020.90 1021.12 1021.38 1021.80 1021.91 1022.10 1022.40 1022.81 1023.16 1023.60 1024.03 1023.82 1024.35 1024.75 1025.27 1025.19 1025.42 1025.58 1025.68 1025.74 1026.20
1014.26 1014.50 1014.72 1015.60 1016.24 1016.13 1016.12 1015.23 1015.59 1016.33 1016.83 1017.50 1018.11 1018.44 1018.71 1019.02 1019.11 1019.20 1019.42 1019.74 1019.88 1020.19 1020.46 1020.74 1021.00 1021.39 1021.68 1021.94 1022.24 1022.45 1022.78 1023.20 1023.81 1023.62 1023.28 1023.76 1023.45 1024.05 1024.77 1025.25 1025.51 1025.76 1026.11
1014.61 1014.91 1015.48 1015.74 1014.88 1015.02 1015.72 1015.74 1016.31 1017.12 1017.03 1017.27 1017.77 1017.85 1018.00 1018.18 1018.24 1018.57 1019.04 1019.22 1019.48 1019.76 1020.12 1020.44 1020.73 1020.99 1021.32 1021.53 1021.77 1022.09 1022.38 1022.63 1023.00 1023.64 1023.20 1023.42 1022.88 1023.38 1024.02 1024.76 1025.17 1025.47 1025.80
1015.38 1015.60 1015.87 1016.02 1016.26 1016.88 1016.76 1016.68 1016.89 1017.11 1017.73 1017.43 1017.59 1017.72 1017.86 1017.84 1018.06 1018.42 1018.66 1018.81 1019.05 1019.43 1019.72 1020.07 1020.40 1020.65 1020.98 1021.13 1021.39 1021.71 1022.00 1022.13 1022.21 1022.55 1022.86 1023.34 1023.43 1023.47 1023.21 1023.64 1024.55 1025.15 1025.49
1017.26 1016.97 1016.72 1016.63 1016.52 1016.77 1016.58 1017.03 1016.60 1017.27 1017.60 1017.80 1017.80 1017.86 1018.08 1018.02 1018.02 1018.17 1018.30 1018.42 1018.67 1018.95 1019.21 1019.57 1019.78 1020.11 1020.41 1020.62 1020.87 1021.08 1021.41 1021.63 1021.88 1022.12 1022.26 1022.41 1022.55 1022.68 1022.96 1023.20 1023.64 1024.16 1024.85
1018.52 1018.26 1017.91 1017.44 1017.51 1016.96 1016.57 1016.46 1016.87 1017.08 1017.42 1017.92 1018.13 1018.15 1018.13 1017.95 1017.80 1017.83 1017.95 1018.10 1018.27 1018.44 1018.59 1018.97 1019.23 1019.44 1019.63 1019.93 1020.31 1020.53 1020.79 1021.11 1021.28 1021.39 1021.59 1021.86 1021.90 1022.03 1022.43 1022.66 1023.30 1023.78 1024.75
1020.26 1019.72 1019.21 1018.87 1018.55 1018.16 1017.68 1017.68 1016.98 1017.10 1017.31 1017.54 1017.62 1017.84 1017.80 1017.79 1017.77 1017.68 1017.72 1017.78 1017.85 1017.87 1017.91 1018.22 1018.49 1018.72 1018.98 1019.30 1019.66 1019.90 1020.00 1020.27 1020.54 1020.64 1020.94 1020.95 1021.32 1021.80 1021.94 1022.07 1022.63 1023.42 1024.08
1021.57 1021.19 1020.99 1020.54 1020.04 1019.48 1019.16 1018.56 1018.03 1018.15 1017.86 1017.58 1017.58 1017.50 1017.49 1017.69 1017.41 1017.60 1017.63 1017.64 1017.47 1017.51 1017.73 1017.86 1018.02 1018.15 1018.44 1018.71 1018.91 1019.15 1019.22 1019.56 1019.82 1019.98 1020.28 1020.61 1020.71 1020.96 1021.21 1021.43 1021.74 1021.70 1022.38
1023.10 1022.73 1022.29 1021.81 1021.30 1020.94 1020.61 1019.93 1019.72 1019.31 1019.11 1018.65 1017.96 1017.53 1017.56 1017.66 1017.62 1017.68 1017.50 1017.41 1017.32 1017.30 1017.46 1017.52 1017.63 1017.64 1017.71 1018.15 1018.50 1018.55 1018.68 1019.02 1019.19 1019.40 1019.59 1019.77 1020.08 1020.31 1021.02 1021.08 1021.26 1021.43 1021.64
1024.33 1023.97 1023.83 1023.32 1023.04 1022.64 1021.69 1021.20 1020.47 1020.11 1019.50 1019.27 1018.38 1018.07 1017.99 1017.72 1017.42 1017.26 1017.02 1016.97 1016.84 1016.91 1017.03 1017.20 1017.22 1017.33 1017.46 1017.70 1017.92 1017.84 1017.95 1018.25 1018.35 1018.77 1018.99 1019.12 1019.51 1019.81 1020.31 1020.76 1021.01 1021.29 1021.44
1025.49 1025.18 1024.65 1024.45 1024.05 1023.63 1023.15 1022.67 1022.04 1021.51 1020.93 1020.52 1019.81 1019.09 1018.44 1017.91 1017.44 1017.03 1016.91 1016.69 1016.60 1016.79 1016.34 1016.81 1016.62 1016.70 1016.59 1017.44 1017.55 1017.46 1017.33 1017.72 1017.86 1018.09 1018.36 1018.60 1019.01 1019.70 1019.83 1020.27 1020.76 1021.05 1021.39
1026.24 1025.91 1025.62 1025.32 1024.86 1024.59 1024.12 1023.61 1023.07 1022.59 1022.09 1021.34 1020.57 1020.05 1019.58 1019.00 1018.20 1017.55 1017.06 1016.73 1016.36 1016.00 1015.84 1015.99 1015.79 1015.71 1016.16 1016.67 1017.05 1016.95 1017.00 1016.80 1017.19 1017.39 1017.52 1017.90 1018.54 1019.10 1019.44 1019.82 1020.19 1020.51 1021.25
1026.83 1026.47 1026.09 1025.89 1025.70 1025.47 1024.88 1024.30 1023.70 1023.23 1022.56 1022.00 1021.30 1020.55 1020.11 1019.60 1019.01 1018.23 1017.46 1016.84 1016.20 1015.80 1015.36 1015.43 1015.39 1015.41 1015.48 1015.85 1015.81 1016.18 1016.30 1016.52 1016.30 1016.84 1016.59 1016.95 1017.09 1017.71 1018.70 1019.30 1019.61 1020.51 1021.14
1027.88 1027.47 1026.89 1026.37 1025.90 1025.45 1025.17 1025.02 1024.61 1023.94 1023.26 1022.39 1021.56 1020.90 1020.32 1019.62 1018.78 1018.13 1017.61 1016.98 1016.29 1015.95 1015.38 1015.02 1014.66 1014.64 1014.84 1014.91 1015.10 1015.45 1015.52 1015.74 1015.70 1015.93 1016.16 1016.22 1016.21 1016.39 1016.97 1017.60 1018.66 1019.55 1020.26
1028.57 1028.28 1027.98 1027.48 1026.76 1026.17 1025.62 1024.93 1024.33 1023.96 1023.53 1022.80 1022.21 1021.51 1020.69 1019.85 1018.94 1018.02 1017.36 1016.80 1016.21 1015.44 1014.79 1014.34 1014.09 1013.87 1013.93 1014.13 1014.41 1014.70 1014.78 1015.00 1015.10 1015.33 1015.76 1015.94 1016.48 1016.43 1016.96 1017.62 1018.20 1018.86 1019.97
1029.23 1028.87 1028.53 1028.19 1027.80 1027.30 1026.48 1025.60 1024.94 1024.28 1023.52 1022.86 1022.18 1021.65 1021.26 1020.67 1020.01 1019.16 1018.22 1017.09 1016.05 1015.38 1014.62 1013.82 1013.60 1013.18 1013.07 1013.22 1013.57 1013.82 1014.06 1014.18 1014.48 1014.75 1015.06 1015.61 1015.97 1016.52 1017.04 1017.78 1018.12 1018.68 1019.25
1029.80 1029.46 1029.08 1028.57 1028.21 1027.73 1027.22 1026.68 1025.74 1024.71 1023.95 1023.22 1022.60 1021.87 1021.19 1020.45 1019.66 1018.92 1018.19 1017.42 1016.55 1015.46 1014.54 1013.73 1013.08 1012.72 1012.45 1012.43 1012.73 1012.96 1013.28 1013.58 1013.78 1014.02 1014.22 1014.59 1015.24 1015.89 1016.51 1017.38 1017.92 1018.89 1019.03
1030.40 1029.95 1029.56 1029.14 1028.56 1027.97 1027.49 1026.93 1026.14 1025.44 1024.69 1023.72 1022.84 1022.10 1021.39 1020.46 1019.59 1018.51 1017.66 1017.04 1016.12 1015.12 1014.30 1013.65 1012.97 1012.27 1011.78 1011.79 1011.80 1012.03 1012.28 1012.77 1013.06 1013.36 1013.70 1013.99 1014.46 1014.91 1015.76 1016.64 1017.68 1018.28 1019.39
1030.86 1030.49 1029.99 1029.42 1028.67 1028.15 1027.70 1026.92 1026.03 1025.24 1024.47 1024.06 1023.43 1022.63 1021.77 1020.52 1019.29 1018.36 1017.49 1016.76 1015.87 1014.60 1013.87 1013.01 1012.34 1011.78 1011.23 1010.98 1011.07 1011.23 1011.37 1011.72 1012.17 1012.62 1012.99 1013.29 1013.56 1014.32 1015.08 1015.95 1016.87 1017.94 1018.62
1030.84 1030.48 1029.96 1029.52 1028.95 1028.32 1027.71 1027.02 1026.27 1025.42 1024.89 1024.14 1023.25 1022.41 1021.48 1020.34 1019.20 1018.18 1017.45 1016.46 1015.41 1014.34 1013.35 1012.27 1011.60 1010.95 1010.30 1010.07 1010.12 1010.24 1010.38 1010.67 1011.26 1011.51 1012.24 1012.52 1012.87 1013.69 1014.27 1014.95 1015.78 1016.68 1017.60
1030.67 1030.43 1029.86 1029.25 1028.72 1028.32 1027.81 1027.11 1026.28 1025.58 1024.88 1023.98 1022.87 1021.65 1020.70 1019.61 1018.46 1017.34 1016.22 1015.37 1014.54 1013.48 1012.23 1011.35 1010.47 1009.77 1009.39 1009.20 1009.24 1009.25 1009.31 1009.57 1010.09 1010.48 1011.12 1011.73 1012.29 1012.75 1013.45 1014.42 1015.18 1016.24 1017.48
1030.92 1030.51 1029.93 1029.32 1028.74 1028.27 1027.85 1027.09 1026.24 1025.52 1024.69 1023.84 1022.66 1021.50 1020.28 1019.09 1017.91 1016.53 1015.26 1014.21 1013.40 1012.50 1011.38 1010.47 1009.61 1008.88 1008.56 1008.34 1008.27 1008.33 1008.37 1008.42 1009.07 1009.66 1010.32 1010.92 1011.62 1012.34 1012.99 1013.81 1014.83 1015.95 1016.84
1031.08 1030.59 1030.05 1029.35 1028.77 1028.23 1027.70 1027.08 1026.27 1025.48 1024.60 1023.61 1022.51 1021.37 1020.09 1018.68 1017.45 1016.21 1014.88 1013.44 1012.50 1011.30 1010.32 1009.56 1008.73 1007.98 1007.72 1007.50 1007.54 1007.54 1007.50 1007.63 1007.97 1008.96 1009.73 1010.45 1011.09 1011.95 1012.69 1013.62 1014.59 1015.55 1016.29
1031.07 1030.73 1030.15 1029.44 1028.73 1028.14 1027.56 1026.93 1026.21 1025.38 1024.48 1023.57 1022.35 1021.03 1019.69 1018.44 1017.04 1015.70 1014.28 1013.07 1011.97 1010.88 1009.40 1008.55 1007.92 1007.40 1006.96 1006.74 1006.78 1006.84 1006.84 1006.84 1007.06 1008.26 1009.29 1010.13 1010.93 1011.92 1012.59 1013.42 1014.22 1015.25 1016.04
1030.93 1030.58 1030.13 1029.53 1028.76 1028.04 1027.26 1026.68 1026.08 1025.35 1024.43 1023.24 1021.98 1020.90 1019.33 1017.99 1016.55 1014.89 1013.16 1012.21 1010.98 1009.73 1008.59 1007.74 1007.17 1006.66 1006.33 1006.29 1006.23 1006.15 1006.03 1006.07 1006.70 1007.74 1008.53 1009.21 1010.11 1011.05 1011.85 1012.80 1014.04 1015.06 1016.03
Thickness
5569 5582 5581 5588 5594 5598 5604 5610 5615 5615 5617 5617 5616 5619 5622 5622 5622 5625 5626 5628 5629 5630 5630 5631 5631 5630 5631 5630 5630 5629 5628 5627 5627 5622 5618 5615 5617 5618 5618 5615 5613 5611 5608
5570 5575 5583 5593 5591 5584 5593 5601 5603 5604 5607 5609 5611 5613 5614 5615 5617 5618 5620 5621 5622 5622 5623 5625 5625 5624 5624 5625 5625 5623 5622 5620 5617 5620 5615 5611 5610 5612 5608 5608 5606 5605 5601
5563 5567 5576 5569 5564 5569 5570 5594 5600 5600 5604 5602 5601 5603 5606 5608 5610 5613 5615 5615 5616 5617 5617 5618 5619 5618 5619 5619 5618 5619 5618 5615 5612 5615 5618 5612 5617 5613 5607 5602 5599 5596 5592
5566 5569 5569 5567 5579 5579 5576 5583 5591 5587 5595 5598 5599 5602 5604 5606 5609 5609 5609 5610 5611 5611 5612 5612 5613 5614 5614 5615 5615 5612 5612 5612 5610 5605 5612 5609 5614 5607 5602 5597 5592 5589 5585
5563 5566 5568 5569 5569 5566 5569 5576 5581 5584 5578 5587 5591 5594 5596 5600 5603 5603 5604 5606 5607 5607 5607 5607 5607 5608 5608 5608 5608 5607 5606 5607 5606 5604 5601 5598 5598 5598 5600 5595 5587 5581 5577
5549 5552 5557 5564 5569 5570 5573 5570 5579 5577 5577 5578 5580 5585 5585 5589 5592 5595 5597 5599 5600 5600 5601 5602 5603 5602 5601 5602 5600 5600 5599 5599 5598 5597 5596 5596 5595 5593 5590 5587 5584 5579 5573
5540 5544 5550 5559 5560 5567 5573 5574 5573 5574 5572 5570 5567 5569 5573 5578 5582 5585 5587 5590 5592 5594 5595 5594 5594 5595 5595 5594 5592 5593 5593 5591 5591 5591 5590 5588 5588 5586 5582 5580 5573 5569 5561
5527 5533 5541 5547 5549 5553 5559 5559 5568 5569 5566 5567 5566 5564 5565 5570 5572 5576 5577 5579 5581 5584 5585 5586 5587 5587 5587 5587 5586 5586 5588 5586 5585 5585 5583 5583 5579 5574 5572 5570 5565 5556 5551
5515 5519 5521 5527 5533 5540 5543 5549 5555 5552 5555 5559 5559 5560 5559 5558 5562 5562 5566 5569 5573 5575 5574 5576 5578 5579 5578 5577 5577 5579 5580 5578 5576 5576 5574 5571 5571 5569 5565 5563 5559 5560 5554
5502 5505 5511 5515 5520 5523 5525 5530 5531 5535 5538 5541 5548 5554 5551 5550 5550 5551 5554 5559 5560 5563 5564 5566 5567 5569 5569 5568 5567 5570 5570 5567 5567 5565 5565 5565 5563 5561 5553 5552 5549 5546 5545
5493 5496 5496 5500 5502 5505 5514 5517 5521 5522 5525 5527 5537 5541 5541 5543 5545 5546 5547 5549 5551 5551 5551 5553 5554 5554 5555 5555 5556 5559 5560 5558 5558 5555 5555 5555 5551 5548 5543 5539 5536 5532 5529
5481 5484 5489 5489 5491 5493 5494 5497 5501 5505 5510 5511 5516 5522 5527 5532 5536 5539 5540 5541 5541 5540 5547 5542 5545 5545 5547 5541 5543 5546 5548 5546 5545 5544 5542 5542 5539 5533 5533 5529 5523 5519 5516
5471 5474 5475 5474 5477 5479 5482 5484 5486 5488 5490 5495 5500 5503 5506 5511 5517 5522 5525 5527 5530 5535 5537 5535 5538 5541 5538 5534 5533 5536 5537 5538 5536 5536 5536 5533 5529 5523 5523 5519 5515 5513 5505
5458 5460 5461 5463 5464 5463 5466 5468 5472 5474 5477 5479 5483 5487 5490 5493 5496 5502 5508 5512 5517 5521 5526 5524 5526 5528 5530 5529 5530 5527 5528 5527 5530 5527 5530 5527 5526 5523 5514 5508 5505 5496 5491
5439 5439 5441 5445 5448 5450 5453 5452 5452 5454 5457 5462 5467 5472 5475 5480 5486 5490 5493 5496 5501 5502 5508 5514 5518 5519 5518 5518 5517 5515 5516 5517 5520 5519 5517 5518 5520 5518 5514 5508 5499 5491 5485
5423 5422 5421 5422 5426 5427 5429 5433 5439 5441 5442 5445 5447 5450 5455 5461 5468 5476 5480 5484 5489 5496 5501 5504 5506 5510 5510 5508 5507 5507 5508 5507 5508 5508 5504 5504 5500 5503 5499 5495 5489 5482 5473
5407 5405 5405 5404 5403 5402 5406 5410 5414 5417 5423 5427 5430 5433 5434 5437 5439 5444 5451 5460 5471 5477 5485 5493 5495 5500 5501 5499 5496 5496 5496 5498 5496 5495 5494 5491 5489 5484 5480 5476 5475 5472 5466
5390 5388 5386 5384 5382 5382 5382 5382 5386 5393 5399 5404 5407 5411 5414 5419 5425 5430 5434 5438 5445 5454 5463 5472 5480 5484 5488 5488 5486 5486 5486 5486 5486 5485 5484 5483 5478 5474 5469 5463 5459 5452 5450
5369 5368 5366 5364 5363 5362 5360 5360 5362 5363 5365 5372 5379 5385 5390 5397 5403 5411 5417 5421 5428 5437 5446 5452 5459 5467 5474 5473 5474 5475 5477 5475 5475 5474 5473 5472 5470 5467 5460 5454 5446 5440 5432
5344 5341 5340 5340 5341 5339 5336 5335 5337 5339 5343 5344 5347 5351 5357 5369 5381 5389 5396 5401 5407 5420 5427 5436 5444 5450 5458 5461 5461 5461 5464 5466 5464 5463 5462 5461 5460 5455 5451 5444 5437 5429 5424
5323 5322 5319 5315 5315 5315 5314 5312 5312 5312 5310 5310 5312 5317 5327 5342 5352 5362 5369 5378 5387 5397 5407 5420 5427 5434 5442 5446 5447 5448 5451 5455 5452 5454 5450 5450 5448 5442 5441 5436 5431 5424 5416
5299 5296 5294 5292 5290 5288 5287 5287 5289 5288 5287 5289 5292 5297 5302 5309 5318 5333 5347 5356 5366 5378 5391 5401 5413 5422 5427 5430 5432 5434 5437 5442 5441 5443 5440 5437 5433 5433 5429 5424 5420 5413 5402
5273 5268 5265 5263 5260 5259 5257 5260 5262 5262 5265 5266 5270 5275 5280 5284 5292 5303 5312 5327 5339 5350 5366 5379 5392 5403 5408 5412 5415 5418 5422 5427 5429 5429 5426 5423 5420 5418 5416 5413 5407 5399 5393
5245 5242 5239 5237 5235 5232 5230 5232 5236 5239 5243 5248 5253 5258 5264 5270 5275 5282 5291 5302 5308 5321 5337 5349 5364 5378 5384 5391 5394 5398 5404 5410 5415 5414 5411 5408 5405 5403 5401 5397 5391 5386 5383
5220 5216 5214 5215 5217 5218 5217 5219 5222 5226 5230 5233 5239 5247 5254 5259 5264 5270 5277 5286 5292 5299 5314 5324 5334 5345 5357 5367 5369 5375 5383 5389 5397 5395 5389 5387 5386 5384 5384 5383 5379 5376 5371
5202 5200 5199 5200 5203 5206 5208 5210 5212 5214 5218 5224 5230 5235 5243 5249 5255 5262 5274 5275 5284 5293 5302 5310 5316 5325 5334 5339 5344 5351 5360 5368 5373 5371 5372 5373 5373 5372 5372 5371 5366 5362 5357